This demonstration page uses our WeatherBlox Daily Observations layout. Learn more.

39.92423, -83.80882

Hourly Observations for April 27, 2015

Temp ( °F °C ) Dew Point ( °F °C ) Humidity (%) Winds ( mph kmh ) Pressure ( in mb ) Visibility ( mi km ) Precip ( " mm )
12:56 am 00:56 Mostly Clear 38 3.3 34 1.1 86 86 Calm 29.94 1014 8 12.87472 0 0
1:56 am 01:56 Partly Cloudy 38 3.3 33 0.5 82 82 W 5 7 29.93 1014 8 12.87472 0 0
2:56 am 02:56 Clear 35 1.6 33 0.5 93 93 Calm 29.92 1013 7 11.26538 0 0
3:56 am 03:56 Clear 35 1.6 32 0 89 89 Calm 29.93 1014 7 11.26538 0 0
4:56 am 04:56 Mostly Clear 34 1.1 32 0 92 92 Calm 29.93 1014 7 11.26538 0 0
5:56 am 05:56 Clear 35 1.6 33 0.5 93 93 Calm 29.93 1014 7 11.26538 0 0
6:56 am 06:56 Sunny with Mist and Fog 33 0.5 32 0 96 96 ENE 3 6 29.95 1014 6 9.65604 0 0
7:56 am 07:56 Sunny with Mist and Fog 37 2.7 35 1.6 93 93 Calm 29.96 1014 5 8.0467 0 0
8:56 am 08:56 Sunny 46 7.7 35 1.6 66 66 SW 5 7 29.97 1015 7 11.26538 0 0
9:56 am 09:56 Mostly Cloudy with Haze 49 9.4 34 1.1 56 56 VRB 3 6 30.01 1016 6 9.65604 0 0
10:56 am 10:56 Hazy 51 10.5 34 1.1 52 52 VRB 3 6 30 1016 6 9.65604 0 0
11:56 am 11:56 Hazy 54 12.2 36 2.2 51 51 NW 12 19 29.99 1016 6 9.65604 0 0
12:56 pm 12:56 Hazy 56 13.3 37 2.7 49 49 NNW 13 20 29.99 1016 6 9.65604 0 0
1:56 pm 13:56 Mostly Cloudy with Haze 55 12.7 36 2.2 49 49 NW 10 17 30 1016 6 9.65604 0 0
2:56 pm 14:56 Cloudy 55 12.7 37 2.7 51 51 N 12 19 30 1016 7 11.26538 0 0
3:56 pm 15:56 Mostly Cloudy with Haze 55 12.7 38 3.3 53 53 N 15 24 29.99 1016 6 9.65604 0 0
4:56 pm 16:56 Cloudy with Haze 53 11.6 37 2.7 55 55 NNW 14 22 30.02 1017 6 9.65604 0 0
5:56 pm 17:56 Cloudy with Haze 52 11.1 38 3.3 59 59 N 15 24 30.03 1017 6 9.65604 0 0
6:56 pm 18:56 Cloudy with Haze 50 10 38 3.3 63 63 N 13 20 30.04 1017 6 9.65604 0 0
7:56 pm 19:56 Cloudy 49 9.4 38 3.3 66 66 NNE 13 20 30.06 1018 7 11.26538 0 0
8:56 pm 20:56 Cloudy 47 8.3 38 3.3 71 71 NNE 9 15 30.06 1018 8 12.87472 0 0
9:56 pm 21:56 Cloudy 47 8.3 37 2.7 68 68 NNE 9 15 30.08 1019 7 11.26538 0 0
10:56 pm 22:56 Cloudy 46 7.7 37 2.7 71 71 NNE 8 13 30.09 1019 8 12.87472 0 0
11:56 pm 23:56 Clear 39 3.8 35 1.6 86 86 NE 6 9 30.09 1019 7 11.26538 0 0

Powered by AerisWeather